sat.trackr.live / text

‹ back to catalog

STARLINK-31591

NORAD 59207 · 2024-046G

PAYLOAD ACTIVE UNKNOWN

§ Identity

Operator
Country
US
Launch date
2024-03-11
Launch site
AFWTR
Launch vehicle
Mass (kg)
RCS (m²)

Purposes: comms

External: N2YO · Heavens-Above · Gunter

§ Orbital elements

Epoch: 2026-05-25T01:06:22.913856Z

Period
93.85 min
Inclination
53.1592°
Eccentricity
0.0000956
Mean motion
15.34402711 rev/d
Perigee alt
462.0 km
Apogee alt
463.3 km
Semi-major
6,840.8 km
B*
2.2111e-5
RAAN
159.7144°
Arg perigee
85.1157°
Mean anomaly
274.9954°
Rev number
12,475

§ Raw data

STARLINK-315911 59207U 24046G   26145.04609854  .00000371  00000+0  22111-4 0  99942 59207  53.1592 159.7144 0000956  85.1157 274.9954 15.34402711124755

JSON: /api/v1/satellites/59207 · /tle

For live sub-satellite position, see the globe view (requires WebGL).

§ Visibility from observer

Set your observer location to see the next 7 days of passes ≥ 10°. The values pass through the URL so the page stays shareable.

No JS? Fill the form by hand. The geolocation button needs JavaScript.